Buckeye, AZ

1:07 PM MST on December 02, 2016 (GMT -0700)
Buckeye Municipal

Weather History for KBXK - July, 2013

Change the Weather History Date:

Tuesday, July 30, 2013

  Actual Average (KGYR) Record (KGYR)
Temperature  
Mean Temperature 91 °F -  
Max Temperature 104 °F 101 °F 109 °F (1996)
Min Temperature 78 °F 79 °F 75 °F (1999)
Cooling Degree Days 26    
Growing Degree Days 41 (Base 50)    
Moisture  
Dew Point 48 °F    
Average Humidity 22    
Maximum Humidity 36    
Minimum Humidity 15    
Precipitation  
Precipitation 0.00 in - - ()
Sea Level Pressure  
Sea Level Pressure 29.98 in    
Wind  
Wind Speed 4 mph (SW)    
Max Wind Speed 10 mph    
Max Gust Speed -    
Visibility 10 miles    
Events      
Averages and records for this station are not official NWS values.
T = Trace of Precipitation, MM = Missing Value Source: NWS Daily Summary

Daily Weather History Graph

Daily Weather History Graph

Search for Another Location

Airport or City:

Trip Planner

Search our weather history database for the weather conditions in past years. The results will help you decide how hot, cold, wet, or windy it might be!

Date:

Astronomy

Jul. 30, 2013 Rise Set
Actual Time 5:42 AM MST 7:31 PM MST
Civil Twilight 5:14 AM MST 7:58 PM MST
Nautical Twilight 4:41 AM MST 8:31 PM MST
Astronomical Twilight 4:06 AM MST 9:06 PM MST
Moon 12:00 AM MST (7/30) 1:56 PM MST (7/30)
Length of Visible Light 14h 44m
Length of Day
13h 49m
Last Quarter, 40% of the Moon is Illuminated
Jul 30
Last Quarter
Aug 6
New
Aug 14
First Quarter
Aug 20
Full
Aug 28
Last Quarter

Hourly Weather History & Observations

Time (MST) Temp. Heat Index Dew Point Humidity Pressure Visibility Wind Dir Wind Speed Gust Speed Precip Events Conditions
12:15 AM 87.8 °F - 46.4 °F 24% 29.95 in 10.0 mi Calm Calm - N/A   Clear
12:35 AM 86.0 °F - 46.4 °F 25% 29.95 in 10.0 mi North 5.8 mph - N/A   Clear
12:55 AM 86.0 °F - 46.4 °F 25% 29.95 in 10.0 mi North 5.8 mph - N/A   Clear
1:15 AM 84.2 °F - 46.4 °F 27% 29.96 in 10.0 mi North 5.8 mph - N/A   Clear
1:35 AM 84.2 °F - 46.4 °F 27% 29.96 in 10.0 mi NW 5.8 mph - N/A   Clear
1:55 AM 84.2 °F - 46.4 °F 27% 29.96 in 10.0 mi West 6.9 mph - N/A   Clear
2:15 AM 84.2 °F - 44.6 °F 25% 29.96 in 10.0 mi WNW 4.6 mph - N/A   Clear
2:35 AM 84.2 °F - 44.6 °F 25% 29.97 in 10.0 mi NW 4.6 mph - N/A   Clear
2:55 AM 82.4 °F - 46.4 °F 28% 29.97 in 10.0 mi West 6.9 mph - N/A   Clear
3:15 AM 82.4 °F - 44.6 °F 26% 29.97 in 10.0 mi West 8.1 mph - N/A   Clear
3:35 AM 82.4 °F - 46.4 °F 28% 29.98 in 10.0 mi WNW 5.8 mph - N/A   Clear
3:55 AM 82.4 °F - 46.4 °F 28% 29.98 in 10.0 mi WNW 5.8 mph - N/A   Clear
4:15 AM 82.4 °F - 46.4 °F 28% 29.98 in 10.0 mi West 4.6 mph - N/A   Clear
4:35 AM 82.4 °F - 46.4 °F 28% 29.99 in 10.0 mi West 4.6 mph - N/A   Clear
4:55 AM 82.4 °F - 46.4 °F 28% 29.99 in 10.0 mi West 4.6 mph - N/A   Clear
5:15 AM 80.6 °F - 48.2 °F 32% 30.00 in 10.0 mi NNW 3.5 mph - N/A   Clear
5:35 AM 80.6 °F - 48.2 °F 32% 30.01 in 10.0 mi NNE 4.6 mph - N/A   Clear
5:55 AM 78.8 °F - 48.2 °F 34% 30.01 in 10.0 mi Calm Calm - N/A   Clear
6:15 AM 78.8 °F - 50.0 °F 36% 30.02 in 10.0 mi SW 3.5 mph - N/A   Clear
6:35 AM 82.4 °F - 50.0 °F 32% 30.02 in 10.0 mi Calm Calm - N/A   Clear
6:55 AM 84.2 °F - 48.2 °F 29% 30.03 in 10.0 mi Calm Calm - N/A   Clear
7:15 AM 86.0 °F - 48.2 °F 27% 30.04 in 10.0 mi Calm Calm - N/A   Clear
7:35 AM 86.0 °F - 48.2 °F 27% 30.04 in 10.0 mi Calm Calm - N/A   Clear
7:55 AM 89.6 °F - 46.4 °F 22% 30.05 in 10.0 mi NNW 3.5 mph - N/A   Clear
8:15 AM 89.6 °F - 46.4 °F 22% 30.06 in 10.0 mi Calm Calm - N/A   Clear
8:35 AM 91.4 °F - 48.2 °F 23% 30.06 in 7.0 mi Calm Calm - N/A   Clear
8:55 AM 91.4 °F - 48.2 °F 23% 30.06 in 10.0 mi Calm Calm - N/A   Clear
9:15 AM 91.4 °F - 48.2 °F 23% 30.06 in 10.0 mi South 3.5 mph - N/A   Clear
9:55 AM 93.2 °F - 48.2 °F 21% 30.06 in 10.0 mi South 3.5 mph - N/A   Clear
10:15 AM 95.0 °F - 48.2 °F 20% 30.06 in 10.0 mi South 5.8 mph - N/A   Clear
10:35 AM 95.0 °F - 48.2 °F 20% 30.05 in 10.0 mi Calm Calm - N/A   Clear
11:15 AM 96.8 °F - 48.2 °F 19% 30.05 in 10.0 mi South 8.1 mph - N/A   Clear
11:35 AM 98.6 °F - 48.2 °F 18% 30.04 in 10.0 mi SSE 5.8 mph - N/A   Clear
11:55 AM 98.6 °F - 48.2 °F 18% 30.04 in 10.0 mi South 3.5 mph - N/A   Clear
12:15 PM 98.6 °F - 48.2 °F 18% 30.03 in 10.0 mi South 5.8 mph - N/A   Clear
12:35 PM 100.4 °F - 48.2 °F 17% 30.03 in 10.0 mi South 4.6 mph - N/A   Clear
12:55 PM 100.4 °F - 46.4 °F 16% 30.02 in 10.0 mi SSE 6.9 mph - N/A   Clear
1:15 PM 100.4 °F - 48.2 °F 17% 30.01 in 10.0 mi SE 5.8 mph - N/A   Clear
1:35 PM 102.2 °F - 48.2 °F 16% 30.00 in 10.0 mi SSE 5.8 mph - N/A   Clear
1:55 PM 102.2 °F - 48.2 °F 16% 29.99 in 10.0 mi SE 8.1 mph - N/A   Clear
2:15 PM 102.2 °F - 48.2 °F 16% 29.99 in 10.0 mi South 5.8 mph - N/A   Clear
2:35 PM 102.2 °F - 48.2 °F 16% 29.98 in 10.0 mi SSE 5.8 mph - N/A   Clear
2:55 PM 104.0 °F - 48.2 °F 15% 29.97 in 10.0 mi ESE 10.4 mph - N/A   Clear
3:15 PM 102.2 °F - 48.2 °F 16% 29.96 in 10.0 mi SE 6.9 mph - N/A   Clear
3:35 PM 104.0 °F - 48.2 °F 15% 29.95 in 10.0 mi South 5.8 mph - N/A   Clear
3:55 PM 104.0 °F - 48.2 °F 15% 29.94 in 10.0 mi South 8.1 mph - N/A   Clear
4:15 PM 104.0 °F - 48.2 °F 15% 29.94 in 10.0 mi South 8.1 mph - N/A   Clear
4:35 PM 104.0 °F - 48.2 °F 15% 29.93 in 10.0 mi South 5.8 mph - N/A   Clear
4:55 PM 104.0 °F - 48.2 °F 15% 29.92 in 10.0 mi South 6.9 mph - N/A   Clear
5:15 PM 104.0 °F - 48.2 °F 15% 29.92 in 10.0 mi South 5.8 mph - N/A   Clear
5:35 PM 104.0 °F - 48.2 °F 15% 29.92 in 10.0 mi South 5.8 mph - N/A   Clear
5:55 PM 104.0 °F - 50.0 °F 16% 29.91 in 10.0 mi SSW 5.8 mph - N/A   Clear
6:15 PM 104.0 °F - 48.2 °F 15% 29.91 in 10.0 mi SSE 3.5 mph - N/A   Clear
6:35 PM 102.2 °F 100.4 °F 53.6 °F 20% 29.91 in 10.0 mi SSE 4.6 mph - N/A   Clear
6:55 PM 100.4 °F - 50.0 °F 18% 29.92 in 10.0 mi WSW 5.8 mph - N/A   Clear
7:15 PM 102.2 °F - 48.2 °F 16% 29.92 in 10.0 mi WSW 8.1 mph - N/A   Clear
7:35 PM 100.4 °F - 48.2 °F 17% 29.92 in 10.0 mi WSW 8.1 mph - N/A   Clear
7:55 PM 98.6 °F - 48.2 °F 18% 29.92 in 10.0 mi WSW 8.1 mph - N/A   Clear
8:15 PM 96.8 °F - 48.2 °F 19% 29.92 in 10.0 mi WSW 6.9 mph - N/A   Clear
8:35 PM 95.0 °F - 48.2 °F 20% 29.93 in 10.0 mi WSW 6.9 mph - N/A   Clear
8:55 PM 93.2 °F - 50.0 °F 23% 29.94 in 10.0 mi West 6.9 mph - N/A   Clear
9:15 PM 95.0 °F - 50.0 °F 22% 29.94 in 10.0 mi West 6.9 mph - N/A   Clear
9:35 PM 93.2 °F - 48.2 °F 21% 29.95 in 10.0 mi West 6.9 mph - N/A   Clear
9:55 PM 93.2 °F - 48.2 °F 21% 29.95 in 10.0 mi WNW 4.6 mph - N/A   Clear
10:15 PM 93.2 °F - 48.2 °F 21% 29.95 in 10.0 mi NW 3.5 mph - N/A   Clear
10:35 PM 91.4 °F - 48.2 °F 23% 29.95 in 10.0 mi WNW 5.8 mph - N/A   Clear
10:55 PM 91.4 °F - 48.2 °F 23% 29.95 in 10.0 mi West 5.8 mph - N/A   Clear
11:15 PM 91.4 °F - 48.2 °F 23% 29.95 in 10.0 mi NW 4.6 mph - N/A   Clear
11:55 PM 89.6 °F - 48.2 °F 24% 29.95 in 10.0 mi West 3.5 mph - N/A   Clear